Location: Kellogg
(38.0159°N, 90.0546°W)
Time: 02:14:04
(UTC+00:00)

SR - Pass Details

Date: 17 September 2024
Orbit: 577 x 855 km, 66.7° (Epoch: 10 October)

Event Time Altitude Azimuth Distance (km) Brightness Sun altitude
Rises 18:12:19 0° 204° (SSW) 2,828 ? 53.6°
Reaches altitude 10° 18:14:34 10° 203° (SSW) 1,908 ? 53.5°
Maximum altitude 18:18:49 79° 118° (ESE) 593 ? 53.4°
Drops below altitude 10° 18:23:02 10° 31° (NNE) 1,896 ? 53.2°
Sets 18:25:16 0° 30° (NNE) 2,809 ? 53.1°
